Overview Statistics Trail Chart Weather Telemetry Raw packets
 

This is the latest recevied weather packets stored in our database for station/object KBTL-WX. If no packets are shown the sender has not sent any weather packets the latest 10 day(s).

<< 4 5 6 7 8 9 10 >>
Time Temp. Humidity Pressure Rain* Wind** Luminosity Snow
1777817714 11.11° C 50% 980.7 hPa 0 mm - - -
1777816836 10.56° C 50% 980.7 hPa 0 mm - - -
1777815913 10° C 54% 981 hPa 0 mm - - -
1777815028 9.44° C 54% 981 hPa 0 mm - - -
1777814114 7.78° C 54% 981 hPa 0 mm - - -
1777813240 7.78° C 54% 981 hPa 0 mm - - -
1777812314 7.22° C 55% 980.2 hPa 0 mm - - -
1777811434 6.67° C 57% 981.3 hPa 0 mm - - -
1777810514 5.56° C 57% 981.3 hPa 0 mm - - -
1777809641 5° C 57% 981.3 hPa 0 mm - - -
1777808714 4.44° C 60% 980.7 hPa 0 mm - - -
1777807829 3.89° C 62% 980.1 hPa 0 mm - - -
1777806913 3.89° C 62% 980.2 hPa 0 mm - - -
1777806039 3.33° C 62% 980.2 hPa 0 mm - - -
1777805113 3.33° C 62% 980 hPa 0 mm - - -
1777804228 3.33° C 65% 980.3 hPa 0 mm - - -
1777803313 2.78° C 65% 980.3 hPa 0 mm - - -
1777802440 2.78° C 65% 980.3 hPa 0 mm - - -
1777801513 2.78° C 64% 980.3 hPa 0 mm - - -
1777800632 2.78° C 65% 980.4 hPa 0 mm - - -
1777799713 2.22° C 65% 980.3 hPa 0 mm - - -
1777798837 2.22° C 65% 980.3 hPa 0 mm - - -
1777797913 2.22° C 60% 980.4 hPa 0 mm - - -
1777797032 2.22° C 64% 980.7 hPa 0 mm - - -
1777796113 1.67° C 64% 980.7 hPa 0 mm - - -

* Rain latest hour (hover to see other rain measurements)
** Current wind speed in m/s (hover to see current wind gust speed)